Weather History for KPSX - November, 2012

Change the Weather History Date:

Saturday, November 24, 2012

  Actual Average Record
Temperature  
Mean Temperature 61 °F -  
Max Temperature 69 °F 71 °F 83 °F (1967)
Min Temperature 51 °F 51 °F 29 °F (1970)
Degree Days  
Heating Degree Days 4    
Growing Degree Days 11 (Base 50)    
Moisture  
Dew Point 40 °F    
Average Humidity 52    
Maximum Humidity 83    
Minimum Humidity 24    
Precipitation  
Precipitation 0.00 in - - ()
Sea Level Pressure  
Sea Level Pressure 30.28 in    
Wind  
Wind Speed 10 mph (NE)    
Max Wind Speed 14 mph    
Max Gust Speed -    
Visibility 10 miles    
Events      
Averages and records for this station are not official NWS values.
T = Trace of Precipitation, MM = Missing Value Source: NWS Daily Summary

Daily Weather History Graph

Daily Weather History Graph

Search for Another Location

Airport or City:

Trip Planner

Search our weather history database for the weather conditions in past years. The results will help you decide how hot, cold, wet, or windy it might be!

Date:

Astronomy

Nov. 24, 2012 Rise Set
Actual Time 6:55 AM CST 5:28 PM CST
Civil Twilight 6:30 AM CST 5:53 PM CST
Nautical Twilight 6:01 AM CST 6:22 PM CST
Astronomical Twilight 5:32 AM CST 6:50 PM CST
Moon 3:01 PM CST (11/24) 3:27 AM CST (11/24)
Length of Visible Light 11h 23m
Length of Day
10h 32m
Waxing Gibbous, 87% of the Moon is Illuminated
Nov 24
Waxing Gibbous
Nov 28
Full
Dec 6
Last Quarter
Dec 13
New
Dec 19
First Quarter

Hourly Weather History & Observations

Time (CST) Temp. Dew Point Humidity Pressure Visibility Wind Dir Wind Speed Gust Speed Precip Events Conditions
12:00 AM 64.4 °F 59.0 °F 83% 30.30 in 7.0 mi North 11.5 mph - N/A   Overcast
12:53 AM 63.0 °F 53.1 °F 70% 30.29 in 10.0 mi NNE 13.8 mph - N/A   Overcast
1:53 AM 62.1 °F 48.0 °F 60% 30.29 in 10.0 mi NNE 11.5 mph - N/A   Overcast
2:53 AM 62.1 °F 50.0 °F 65% 30.30 in 10.0 mi NNE 6.9 mph - N/A   Overcast
3:53 AM 61.0 °F 46.9 °F 60% 30.31 in 10.0 mi North 9.2 mph - N/A   Overcast
4:53 AM 59.0 °F 41.0 °F 51% 30.32 in 10.0 mi North 11.5 mph - N/A   Overcast
5:53 AM 57.0 °F 35.1 °F 44% 30.33 in 10.0 mi North 11.5 mph - N/A   Overcast
6:53 AM 55.9 °F 36.0 °F 47% 30.35 in 10.0 mi North 10.4 mph - N/A   Overcast
7:53 AM 54.0 °F 36.0 °F 51% 30.36 in 10.0 mi North 12.7 mph - N/A   Overcast
8:53 AM 55.9 °F 34.0 °F 44% 30.36 in 10.0 mi NNE 12.7 mph - N/A   Clear
9:53 AM 57.9 °F 32.0 °F 37% 30.37 in 10.0 mi NNE 12.7 mph - N/A   Clear
10:53 AM 60.1 °F 33.1 °F 36% 30.36 in 10.0 mi NNE 9.2 mph - N/A   Clear
11:53 AM 63.0 °F 34.0 °F 34% 30.32 in 10.0 mi NNE 8.1 mph - N/A   Clear
12:53 PM 66.0 °F 32.0 °F 28% 30.28 in 10.0 mi North 6.9 mph - N/A   Clear
1:53 PM 66.9 °F 32.0 °F 27% 30.25 in 10.0 mi Variable 5.8 mph - N/A   Clear
2:53 PM 69.1 °F 30.9 °F 24% 30.23 in 10.0 mi NNE 10.4 mph - N/A   Clear
3:53 PM 68.0 °F 30.0 °F 24% 30.22 in 10.0 mi NNE 9.2 mph - N/A   Clear
4:53 PM 66.0 °F 33.1 °F 29% 30.21 in 10.0 mi NE 3.5 mph - N/A   Clear
5:53 PM 57.0 °F 45.0 °F 64% 30.22 in 10.0 mi ESE 6.9 mph - N/A   Clear
6:53 PM 55.9 °F 46.0 °F 69% 30.21 in 10.0 mi ESE 5.8 mph - N/A   Clear
8:53 PM 54.0 °F 46.0 °F 75% 30.22 in 10.0 mi East 4.6 mph - N/A   Clear
9:53 PM 54.0 °F 46.0 °F 75% 30.22 in 10.0 mi East 5.8 mph - N/A   Clear
10:53 PM 53.1 °F 45.0 °F 74% 30.20 in 10.0 mi East 4.6 mph - N/A   Clear
11:53 PM 51.1 °F 45.0 °F 80% 30.18 in 10.0 mi ENE 4.6 mph - N/A   Clear